Volver al catálogo

DELTA 4H R/B

ActivoMEO
NORAD 33491·ROCKET BODY·🇺🇸 United States

Lanzado Jan 18, 2009 desde Cape Canaveral Space Force Station

Loading…

Próximos Pases (próximas 24 horas)

TLE

ActualizadoSource: Space-Track

Época: Sep 14, 2026, 12:23 UTC

1 33491U 09001B   26257.51665071 -.00000168  00000-0  00000-0 0  9999
2 33491   9.8308  34.8166 0262135  67.2984 295.4986  0.96058946 25011

Sigue DELTA 4H R/B en tiempo real con AllMySat

Download on the App Store